Regional Weather Roundup
Issued by NWS

Home | Current Version | Previous Version | Text Only | Print | Product List | Glossary Off
Versions: 1 2 3 4 5 6 7 8 9 10 11 12 13 14 15 16 17 18 19 20 21 22 23 24 25 26 27 28 29 30 31 32 33 34 35 36 37 38 39 40 41 42 43 44 45 46 47 48 49

000
ASUS45 KTFX 291810
RWRMT
MONTANA REGIONAL WEATHER ROUNDUP
NATIONAL WEATHER SERVICE GREAT FALLS MT
1200 PM MDT FRI MAY 29 2015

NOTE: "FAIR" INDICATES FEW OR NO CLOUDS BELOW 12000 FEET WITH NO
SIGNIFICANT WEATHER AND/OR OBSTRUCTIONS TO VISIBILITY.

MTZ001>007-043-291900-
WEST OF THE DIVIDE

CITY           SKY/WX    TMP DP  RH WIND       PRES   REMARKS
KALISPELL      CLEAR     66  43  43 CALM      30.13F
MISSOULA       SUNNY     65  44  46 VRB7      30.14F
BUTTE          SUNNY     60  42  51 SE13      30.23F
MULLAN PASS    SUNNY     54  45  71 VRB5      30.19S
DEER LODGE       N/A     63  45  51 SE7       30.23F
EUREKA           N/A     70  45  40 S3        30.11F
HAMILTON         N/A     64  46  52 NW7       30.13F
LIBBY            N/A     63  52  67 NW5       30.13F
PLAINS           N/A     67  49  52 CALM      30.11F
$$

MTZ008-052>055-291900-
SOUTHWEST MONTANA

CITY           SKY/WX    TMP DP  RH WIND       PRES   REMARKS
BOZEMAN        MOSUNNY   58  45  62 VRB3      30.24F
DILLON         MOSUNNY   56  46  69 CALM      30.24F
W YELLOWSTONE  PTSUNNY   54  39  58 CALM      30.30S
THREE FORKS      N/A     59  50  72 N1        30.21F
TWIN BRIDGES     N/A     57  45  64 S5        30.20F
$$

MTZ009-010-012-014-046-048-049-054-291900-
EAST SLOPES AND CENTRAL MONTANA

CITY           SKY/WX    TMP DP  RH WIND       PRES   REMARKS
CUT BANK       CLOUDY    51  42  71 SE15      30.22F
GREAT FALLS    CLOUDY    54  46  74 E5        30.23F
MALMSTROM AFB  CLOUDY    54  48  79 NE8       30.24F
HELENA         MOSUNNY   62  46  55 E10       30.21F
CONRAD           N/A     53  49  86 E12       30.24F
$$

MTZ011-013-016-021-045-047-050-051-291900-
NORTH CENTRAL MONTANA

CITY           SKY/WX    TMP DP  RH WIND       PRES   REMARKS
HAVRE          CLOUDY    59  41  51 CALM      30.27F
LEWISTOWN      CLOUDY    53  44  71 E15       30.28F
N BAR RANCH    CLOUDY    46  41  81 S8        30.33F
CHINOOK          N/A     57  39  51 E8        30.28F
FORT BENTON      N/A     61  45  55 E12       30.25F
$$

MTZ017>020-022>027-061-062-291900-
NORTHEAST MONTANA

CITY           SKY/WX    TMP DP  RH WIND       PRES   REMARKS
GLASGOW        MOSUNNY   53  33  46 E6        30.34F
JORDAN           N/A     53  33  46 NE8       30.33F
SIDNEY         SUNNY     54  30  40 NW10      30.32S
WOLF POINT     MOSUNNY   53  33  46 VRB5      30.35F
MALTA            N/A     56  34  43 NE3       30.28S
PLENTYWOOD       N/A     48  28  46 NW6       30.33F
POPLAR           N/A     52  30  43 NE6       30.35S
SCOBEY           N/A     47  30  51 N12       30.31S
$$

MTZ028>42-056>058-291900-
SOUTHCENTRAL AND SOUTHEAST MONTANA

CITY           SKY/WX    TMP DP  RH WIND       PRES   REMARKS
BAKER          MOSUNNY   53  35  50 N10       30.30S
BILLINGS       CLOUDY    51  42  71 NE6       30.33S
LIVINGSTON     CLOUDY    54  45  71 E8        30.27F
MILES CITY     SUNNY     54  31  41 VRB3      30.32F
BIG TIMBER       N/A     48  45  87 E9        30.30S
EKALAKA          N/A     49  34  56 NW9       30.25S
LAUREL           N/A     51  42  71 NE5       30.28F
ROUNDUP          N/A     53  38  56 E3        30.21F
$$

REGIONAL REPORTS...DAKOTAS

CITY           SKY/WX    TMP DP  RH WIND       PRES   REMARKS
WILLISTON      MOSUNNY   52  32  46 N5G18     30.32F
MINOT          CLOUDY    47  34  60 N15       30.29S
DICKINSON      CLOUDY    50  34  54 N15G23    30.28R
BEACH          FAIR      50  34  53 N10G18    30.31S
CROSBY         MOCLDY    48  32  53 N14       30.34S
WATFORD CITY   FAIR      48  36  61 N9        30.30S
BISMARCK       CLOUDY    52  35  52 N17G23    30.26R
GRAND FORKS    CLOUDY    47  37  68 N23G31    30.19R
FARGO          CLOUDY    48  41  76 N28G33    30.14R
BUFFALO SD       N/A     51  36  56 N15       30.21S
RAPID CITY     LGT RAIN  47  45  93 N21G30    30.24R FOG
$$

REGIONAL REPORTS...WYOMING/IDAHO/WASHINGTON

CITY           SKY/WX    TMP DP  RH WIND       PRES   REMARKS
GILLETTE       PTSUNNY   52  40  63 N13       30.29S
SHERIDAN       CLOUDY    46  43  89 CALM      30.32S
BUFFALO WY     CLOUDY    45  43  93 N9G21     30.32R FOG
CODY           CLOUDY    52  46  82 E7        30.30S
YELLOWSTONE LA   N/A     50  37  61 VRB3      30.36S
IDAHO FALLS    MOSUNNY   62  45  53 CALM      30.23F
SALMON         PTSUNNY   64  46  52 N5        30.15F
BOISE          SUNNY     79  41  25 S20G25    30.08F
SPOKANE        PTSUNNY   72  49  44 NE13      30.04F
$$

REGIONAL REPORTS...ALBERTA

CITY           SKY/WX    TMP DP  RH WIND       PRES   REMARKS
EDMONTON       PTSUNNY   57  30  35 SE9       30.28F
CALGARY        PTSUNNY   57  37  47 S15G24    30.20F
LETHBRIDGE     PTSUNNY   57  45  62 SE10G17   30.21S
MEDICINE HAT   PTSUNNY   61  34  36 NE8G17    30.26F
$$

REGIONAL REPORTS...SASKATCHEWAN

CITY           SKY/WX    TMP DP  RH WIND       PRES   REMARKS
SWIFT CURRENT  SUNNY     50  30  46 VRB7      30.33F
REGINA         MOSUNNY   50  27  40 N10G23    30.36F
SASKATOON      MOSUNNY   48  23  37 NE8       30.41F
$$


USA.gov is the U.S. government's official web portal to all federal, state and local government web resources and services.